Ephrata, WA
on Thursday, December 6, 2012

Thursday
Previous Day Next Day
Daily Summary
 ActualAverageRecord
Temperature
Mean Temperature °F 29°F  
Max Temperature 44°F 35°F 54°F (1979)
Min Temperature 27°F 23°F 3°F (1956)
Degree Days
Heating Degree Days 29 36  
Month to date heating degree days 138 211  
Since 1 July heating degree days 1398 1630  
Cooling Degree Days 0 0  
Month to date cooling degree days 0 0  
Year to date cooling degree days 837 772  
Moisture
Dew Point 29°F   
Average Humidity 80    
Maximum Humidity 92    
Minimum Humidity 67    
Precipitation
Precipitation 0.00 in 0.04 in 0.35 in (1987)
Month to date precipitation 0.56 0.25  
Year to date precipitation 7.51 6.86  
Wind
Wind Speed 7 mph   
Max Wind Speed 17 mph   
Max Gust Speed 23 mph   
Visibility 10 miles   
Events     

Key: T is trace of precipitation, MM is missing value
Source: NWS Daily Summary
Time(PST)TemperatureDew PointHumidity Pressure Visibility Wind DirectionWind SpeedGust SpeedPrecipitationEvents Conditions
12:53 AM 32.0°F 28.0°F 85% 30.15 in 10.0 miles NNE 4.6 mph - N/A   Mostly Cloudy
1:53 AM 30.0°F 27.0°F 88% 30.14 in 10.0 miles North 3.5 mph - N/A   Clear
2:53 AM 28.0°F 25.0°F 88% 30.14 in 10.0 miles Calm Calm - N/A   Clear
3:53 AM 30.0°F 26.1°F 85% 30.13 in 10.0 miles North 5.8 mph - N/A   Clear
4:53 AM 30.0°F 26.1°F 85% 30.13 in 10.0 miles North 5.8 mph - N/A   Clear
5:53 AM 30.0°F 27.0°F 88% 30.12 in 10.0 miles NE 3.5 mph - N/A   Scattered Clouds
6:53 AM 30.9°F 28.0°F 89% 30.11 in 10.0 miles Calm Calm - N/A   Mostly Cloudy
7:53 AM 30.9°F 28.0°F 89% 30.10 in 10.0 miles North 4.6 mph - N/A   Clear
8:53 AM 30.9°F 28.0°F 89% 30.10 in 10.0 miles NNE 4.6 mph - N/A   Partly Cloudy
9:53 AM 33.1°F 30.0°F 89% 30.11 in 10.0 miles Calm Calm - N/A   Partly Cloudy
10:53 AM 35.1°F 30.9°F 85% 30.09 in 10.0 miles Calm Calm - N/A   Overcast
11:53 AM 35.1°F 30.9°F 85% 30.06 in 10.0 miles South 4.6 mph - N/A   Mostly Cloudy
12:53 PM 39.0°F 32.0°F 76% 30.04 in 10.0 miles South 9.2 mph - N/A   Mostly Cloudy
1:53 PM 43.0°F 32.0°F 65% 30.00 in 10.0 miles South 11.5 mph - N/A   Partly Cloudy
2:53 PM 43.0°F 33.1°F 68% 29.99 in 10.0 miles South 11.5 mph - N/A   Partly Cloudy
3:53 PM 42.1°F 33.1°F 70% 29.99 in 10.0 miles SSW 10.4 mph - N/A   Partly Cloudy
4:53 PM 37.9°F 30.9°F 76% 29.99 in 10.0 miles WSW 10.4 mph - N/A   Mostly Cloudy
5:53 PM 37.9°F 30.9°F 76% 29.97 in 10.0 miles WSW 15.0 mph - N/A   Partly Cloudy
6:53 PM 37.0°F 30.9°F 79% 29.97 in 10.0 miles SW 12.7 mph - N/A   Clear
7:53 PM 37.9°F 30.0°F 73% 30.00 in 10.0 miles SW 9.2 mph - N/A   Clear
8:53 PM 36.0°F 30.0°F 79% 30.01 in 10.0 miles SW 10.4 mph - N/A   Clear
9:53 PM 36.0°F 28.9°F 76% 30.03 in 10.0 miles SSE 6.9 mph - N/A   Clear
10:53 PM 35.1°F 28.0°F 76% 30.04 in 10.0 miles SSW 5.8 mph - N/A   Clear
11:53 PM 32.0°F 28.9°F 88% 30.04 in 10.0 miles WSW 8.1 mph - N/A   Clear
Moon Phase
Dec. 06 Dec. 13 Dec. 20 Dec. 28 Jan. 04
Sunrise:07:30 AM (PST) Moon Rise:No Moon Rise/
Sunset:04:08 PM (PST) Moon Set:12:01 PM (PST)12/6

Copyright © 2014 The Weather Underground, Inc.